Terminal Aerodrome Forecast
Issued by NWS

Home | Current Version | Previous Version | Graphics & Text | Print | Product List | Glossary On
Versions: 1 2 3 4 5 6 7 8 9 10 11 12 13 14 15 16 17 18 19 20 21 22 23 24 25 26 27 28 29 30 31 32 33 34 35 36 37 38 39 40 41 42 43 44 45 46 47 48 49 50
000
FTUS43 KLOT 211600 AAB
TAFGYY
TAF AMD
KGYY 211610Z 2116/2212 16010KT P6SM SCT025 OVC035
      TEMPO 2116/2118 BKN025
     FM211800 17011G16KT 6SM BR OVC025
     FM220000 14009KT P6SM OVC035=

USA.gov is the U.S. government's official web portal to all federal, state and local government web resources and services.